| time (UTC) | temp F | wind direction | speed MPH | gust MPH | rain 1hr in | rain 24hr in | rain mn in | humidity % | barometer mb |
| 20260505235039 | 49 | 5 | 2.0 | 6.0 | 0.00 | 0.00 | 0.00 | 83 | 1009.1 |
| 20260505234537 | 49 | 19 | 3.0 | 6.0 | 0.00 | 0.00 | 0.00 | 83 | 1009.1 |
| 20260505234031 | 49 | 355 | 1.0 | 6.0 | 0.00 | 0.00 | 0.00 | 82 | 1009.1 |
| 20260505233532 | 49 | 41 | 2.0 | 6.0 | 0.00 | 0.00 | 0.00 | 82 | 1009.2 |
| 20260505233036 | 48 | 9 | 2.0 | 6.0 | 0.00 | 0.00 | 0.00 | 82 | 1009.2 |
| 20260505232604 | 48 | 60 | 3.0 | 6.0 | 0.00 | 0.00 | 0.00 | 82 | 1009.3 |
| 20260505232028 | 48 | 12 | 2.0 | 5.0 | 0.00 | 0.00 | 0.00 | 83 | 1009.3 |
| 20260505231541 | 48 | 5 | 3.0 | 6.0 | 0.00 | 0.00 | 0.00 | 83 | 1009.4 |
| 20260505231055 | 48 | 355 | 3.0 | 7.0 | 0.00 | 0.00 | 0.00 | 82 | 1009.5 |
| 20260505230556 | 48 | 47 | 2.0 | 7.0 | 0.00 | 0.00 | 0.00 | 82 | 1009.5 |
| 20260505230025 | 48 | 360 | 2.0 | 5.0 | 0.00 | 0.00 | 0.00 | 82 | 1009.5 |
| 20260505225537 | 48 | 360 | 2.0 | 6.0 | 0.00 | 0.00 | 0.00 | 82 | 1009.5 |
| 20260505225033 | 48 | 38 | 3.0 | 6.0 | 0.00 | 0.00 | 0.00 | 82 | 1009.5 |
| 20260505224540 | 48 | 30 | 2.0 | 6.0 | 0.00 | 0.00 | 0.00 | 82 | 1009.5 |
| 20260505224046 | 48 | 5 | 3.0 | 6.0 | 0.00 | 0.00 | 0.00 | 81 | 1009.5 |
| 20260505223543 | 48 | 28 | 2.0 | 6.0 | 0.00 | 0.00 | 0.00 | 81 | 1009.5 |
| 20260505223029 | 48 | 349 | 3.0 | 7.0 | 0.00 | 0.00 | 0.00 | 81 | 1009.5 |
| 20260505222535 | 48 | 24 | 3.0 | 8.0 | 0.00 | 0.00 | 0.00 | 81 | 1009.5 |
| 20260505222037 | 48 | 360 | 2.0 | 8.0 | 0.00 | 0.00 | 0.00 | 80 | 1009.6 |
| 20260505221553 | 49 | 44 | 3.0 | 8.0 | 0.00 | 0.00 | 0.00 | 80 | 1009.6 |
| 20260505221045 | 49 | 344 | 2.0 | 6.0 | 0.00 | 0.00 | 0.00 | 80 | 1009.6 |
| 20260505220532 | 49 | 355 | 2.0 | 6.0 | 0.00 | 0.00 | 0.00 | 80 | 1009.6 |
| 20260505220049 | 49 | 31 | 2.0 | 6.0 | 0.00 | 0.00 | 0.00 | 80 | 1009.7 |
| 20260505215537 | 49 | 321 | 2.0 | 6.0 | 0.00 | 0.00 | 0.00 | 79 | 1009.7 |
| 20260505215041 | 49 | 39 | 2.0 | 7.0 | 0.00 | 0.00 | 0.00 | 79 | 1009.7 |
| 20260505214542 | 49 | 323 | 3.0 | 7.0 | 0.00 | 0.00 | 0.00 | 79 | 1009.8 |
| 20260505214036 | 49 | 319 | 3.0 | 6.0 | 0.00 | 0.00 | 0.00 | 79 | 1009.8 |
| 20260505213550 | 49 | 355 | 2.0 | 6.0 | 0.00 | 0.00 | 0.00 | 79 | 1009.8 |
| 20260505213111 | 49 | 24 | 3.0 | 6.0 | 0.00 | 0.00 | 0.00 | 79 | 1009.8 |
| 20260505212535 | 49 | 19 | 2.0 | 7.0 | 0.00 | 0.00 | 0.00 | 79 | 1009.9 |
| 20260505212042 | 49 | 26 | 3.0 | 7.0 | 0.00 | 0.00 | 0.00 | 78 | 1009.9 |
| 20260505211531 | 49 | 360 | 3.0 | 7.0 | 0.00 | 0.00 | 0.00 | 78 | 1009.9 |
| 20260505211037 | 50 | 19 | 2.0 | 9.0 | 0.00 | 0.00 | 0.00 | 78 | 1009.8 |
| 20260505210530 | 50 | 264 | 4.0 | 9.0 | 0.00 | 0.00 | 0.00 | 79 | 1009.9 |
| 20260505210029 | 50 | 22 | 3.0 | 9.0 | 0.00 | 0.00 | 0.00 | 79 | 1009.9 |
| 20260505205602 | 50 | 5 | 3.0 | 9.0 | 0.00 | 0.00 | 0.00 | 79 | 1010.0 |
| 20260505205040 | 50 | 16 | 3.0 | 8.0 | 0.00 | 0.00 | 0.00 | 80 | 1010.1 |
| 20260505204551 | 50 | 23 | 3.0 | 7.0 | 0.00 | 0.00 | 0.00 | 80 | 1010.0 |
| 20260505204025 | 50 | 37 | 2.0 | 5.0 | 0.00 | 0.00 | 0.00 | 81 | 1010.1 |
| 20260505203559 | 50 | 5 | 2.0 | 9.0 | 0.00 | 0.00 | 0.00 | 81 | 1010.1 |
| 20260505203046 | 50 | 30 | 3.0 | 7.0 | 0.00 | 0.00 | 0.00 | 81 | 1010.1 |
| 20260505202548 | 50 | 11 | 2.0 | 4.0 | 0.00 | 0.00 | 0.00 | 80 | 1010.1 |
| 20260505202119 | 50 | 49 | 2.0 | 6.0 | 0.00 | 0.00 | 0.00 | 80 | 1010.0 |
| 20260505201542 | 50 | 51 | 2.0 | 6.0 | 0.00 | 0.00 | 0.00 | 80 | 1010.0 |
| 20260505201033 | 50 | 355 | 3.0 | 5.0 | 0.00 | 0.00 | 0.00 | 80 | 1010.1 |
| 20260505200549 | 50 | 24 | 3.0 | 7.0 | 0.00 | 0.00 | 0.00 | 79 | 1010.0 |
| 20260505200029 | 51 | 349 | 3.0 | 8.0 | 0.00 | 0.00 | 0.00 | 79 | 1010.0 |
| 20260505195530 | 51 | 29 | 3.0 | 8.0 | 0.00 | 0.00 | 0.00 | 79 | 1010.0 |
| 20260505195033 | 51 | 360 | 3.0 | 8.0 | 0.00 | 0.00 | 0.00 | 78 | 1009.9 |
| 20260505194603 | 51 | 58 | 4.0 | 8.0 | 0.00 | 0.00 | 0.00 | 78 | 1009.8 |
| 20260505194037 | 51 | 32 | 4.0 | 9.0 | 0.00 | 0.00 | 0.00 | 78 | 1009.8 |
| 20260505193614 | 52 | 360 | 4.0 | 9.0 | 0.00 | 0.00 | 0.00 | 77 | 1009.7 |
| 20260505193039 | 52 | 17 | 4.0 | 8.0 | 0.00 | 0.00 | 0.00 | 77 | 1009.7 |
| 20260505192543 | 52 | 37 | 4.0 | 9.0 | 0.00 | 0.00 | 0.00 | 77 | 1009.6 |
| 20260505192030 | 52 | 5 | 4.0 | 11.0 | 0.00 | 0.00 | 0.00 | 76 | 1009.6 |
| 20260505191556 | 53 | 16 | 5.0 | 11.0 | 0.00 | 0.00 | 0.00 | 76 | 1009.5 |
| 20260505191035 | 53 | 17 | 3.0 | 11.0 | 0.00 | 0.00 | 0.00 | 75 | 1009.5 |
| 20260505190549 | 53 | 324 | 5.0 | 10.0 | 0.00 | 0.00 | 0.00 | 74 | 1009.4 |
| 20260505190046 | 53 | 355 | 4.0 | 10.0 | 0.00 | 0.00 | 0.00 | 74 | 1009.3 |
| 20260505185541 | 53 | 348 | 7.0 | 14.0 | 0.00 | 0.00 | 0.00 | 74 | 1009.3 |
| 20260505185055 | 53 | 44 | 6.0 | 14.0 | 0.00 | 0.00 | 0.00 | 73 | 1009.2 |
| 20260505184531 | 53 | 349 | 6.0 | 10.0 | 0.00 | 0.00 | 0.00 | 74 | 1009.2 |
| 20260505184105 | 53 | 17 | 5.0 | 12.0 | 0.00 | 0.00 | 0.00 | 74 | 1009.1 |
| 20260505183544 | 53 | 341 | 5.0 | 12.0 | 0.00 | 0.00 | 0.00 | 73 | 1009.1 |
| 20260505183028 | 54 | 24 | 6.0 | 12.0 | 0.00 | 0.00 | 0.00 | 74 | 1009.1 |
| 20260505182544 | 54 | 56 | 6.0 | 10.0 | 0.00 | 0.00 | 0.00 | 73 | 1009.2 |
| 20260505182103 | 54 | 46 | 4.0 | 13.0 | 0.00 | 0.00 | 0.00 | 73 | 1009.2 |
| 20260505181529 | 54 | 21 | 8.0 | 13.0 | 0.00 | 0.00 | 0.00 | 72 | 1009.2 |
| 20260505181110 | 54 | 5 | 6.0 | 13.0 | 0.00 | 0.00 | 0.00 | 72 | 1009.1 |
| 20260505180539 | 54 | 23 | 4.0 | 13.0 | 0.00 | 0.00 | 0.00 | 72 | 1009.1 |
| 20260505180046 | 54 | 346 | 6.0 | 15.0 | 0.00 | 0.00 | 0.00 | 72 | 1009.1 |
| 20260505175538 | 55 | 20 | 8.0 | 15.0 | 0.00 | 0.00 | 0.00 | 71 | 1009.1 |
| 20260505175040 | 55 | 17 | 7.0 | 14.0 | 0.00 | 0.00 | 0.00 | 72 | 1009.1 |
| 20260505174541 | 55 | 45 | 6.0 | 14.0 | 0.00 | 0.00 | 0.00 | 71 | 1009.2 |
| 20260505174029 | 55 | 57 | 5.0 | 11.0 | 0.00 | 0.00 | 0.00 | 71 | 1009.2 |
| 20260505173546 | 55 | 21 | 4.0 | 12.0 | 0.00 | 0.00 | 0.00 | 71 | 1009.2 |
| 20260505173050 | 55 | 336 | 6.0 | 13.0 | 0.00 | 0.00 | 0.00 | 70 | 1009.1 |
| 20260505172539 | 55 | 52 | 6.0 | 13.0 | 0.00 | 0.00 | 0.00 | 70 | 1009.2 |
| 20260505172035 | 55 | 22 | 5.0 | 14.0 | 0.00 | 0.00 | 0.00 | 69 | 1009.2 |
| 20260505171604 | 56 | 37 | 6.0 | 14.0 | 0.00 | 0.00 | 0.00 | 68 | 1009.2 |
| 20260505171023 | 56 | 64 | 7.0 | 12.0 | 0.00 | 0.00 | 0.00 | 68 | 1009.2 |
| 20260505170535 | 56 | 67 | 6.0 | 12.0 | 0.00 | 0.00 | 0.00 | 69 | 1009.2 |
| 20260505170048 | 56 | 31 | 6.0 | 12.0 | 0.00 | 0.00 | 0.00 | 69 | 1009.3 |
| 20260505165602 | 56 | 343 | 4.0 | 14.0 | 0.00 | 0.00 | 0.00 | 68 | 1009.3 |
| 20260505165038 | 56 | 55 | 5.0 | 14.0 | 0.00 | 0.00 | 0.00 | 68 | 1009.3 |
| 20260505164541 | 57 | 325 | 3.0 | 12.0 | 0.00 | 0.00 | 0.00 | 67 | 1009.2 |
| 20260505164124 | 57 | 355 | 5.0 | 11.0 | 0.00 | 0.00 | 0.00 | 67 | 1009.3 |
| 20260505163552 | 57 | 59 | 6.0 | 12.0 | 0.00 | 0.00 | 0.00 | 66 | 1009.3 |
| 20260505163029 | 57 | 76 | 5.0 | 10.0 | 0.00 | 0.00 | 0.00 | 66 | 1009.4 |
| 20260505162554 | 57 | 348 | 5.0 | 12.0 | 0.00 | 0.00 | 0.00 | 66 | 1009.4 |
| 20260505162049 | 58 | 332 | 6.0 | 12.0 | 0.00 | 0.00 | 0.00 | 65 | 1009.4 |
| 20260505161536 | 58 | 13 | 5.0 | 13.0 | 0.00 | 0.00 | 0.00 | 65 | 1009.4 |
| 20260505161027 | 58 | 31 | 6.0 | 12.0 | 0.00 | 0.00 | 0.00 | 65 | 1009.4 |
| 20260505160543 | 59 | 47 | 6.0 | 12.0 | 0.00 | 0.00 | 0.00 | 65 | 1009.4 |
| 20260505153032 | 57 | 46 | 5.0 | 13.0 | 0.00 | 0.00 | 0.00 | 65 | 1009.4 |
| 20260505152544 | 57 | 5 | 6.0 | 13.0 | 0.00 | 0.00 | 0.00 | 65 | 1009.5 |
| 20260505152043 | 57 | 33 | 5.0 | 11.0 | 0.00 | 0.00 | 0.00 | 64 | 1009.5 |
| 20260505151548 | 58 | 272 | 6.0 | 11.0 | 0.00 | 0.00 | 0.00 | 66 | 1009.5 |
| 20260505151035 | 57 | 317 | 4.0 | 10.0 | 0.00 | 0.00 | 0.00 | 65 | 1009.5 |
| 20260505150547 | 57 | 244 | 4.0 | 10.0 | 0.00 | 0.00 | 0.00 | 65 | 1009.6 |
| 20260505150106 | 57 | 304 | 4.0 | 10.0 | 0.00 | 0.00 | 0.00 | 65 | 1009.6 |
| 20260505140625 | 59 | 56 | 6.0 | 13.0 | 0.00 | 0.00 | 0.00 | 62 | 1009.8 |
| 20260505125030 | 61 | 40 | 5.0 | 12.0 | 0.00 | 0.00 | 0.00 | 61 | 1010.2 |
| 20260505124541 | 61 | 9 | 7.0 | 13.0 | 0.00 | 0.00 | 0.00 | 62 | 1010.2 |
| 20260505124054 | 61 | 360 | 6.0 | 13.0 | 0.00 | 0.00 | 0.00 | 63 | 1010.2 |
| 20260505123554 | 61 | 26 | 3.0 | 15.0 | 0.00 | 0.00 | 0.00 | 62 | 1010.2 |
| 20260505123037 | 61 | 72 | 5.0 | 15.0 | 0.00 | 0.00 | 0.00 | 62 | 1010.2 |
| 20260505122547 | 61 | 15 | 3.0 | 11.0 | 0.00 | 0.00 | 0.00 | 63 | 1010.3 |
| 20260505122055 | 61 | 5 | 4.0 | 12.0 | 0.00 | 0.00 | 0.00 | 61 | 1010.3 |
| 20260505121530 | 61 | 39 | 6.0 | 12.0 | 0.00 | 0.00 | 0.00 | 62 | 1010.3 |
| 20260505121031 | 61 | 90 | 5.0 | 9.0 | 0.00 | 0.00 | 0.00 | 64 | 1010.2 |
| 20260505120558 | 60 | 44 | 4.0 | 12.0 | 0.00 | 0.00 | 0.00 | 64 | 1010.1 |
| 20260505120040 | 60 | 28 | 6.0 | 12.0 | 0.00 | 0.00 | 0.00 | 64 | 1010.2 |
| 20260505115546 | 60 | 5 | 6.0 | 11.0 | 0.00 | 0.00 | 0.00 | 63 | 1010.2 |
| 20260505115100 | 60 | 342 | 6.0 | 13.0 | 0.00 | 0.00 | 0.00 | 63 | 1010.2 |
| 20260505114544 | 61 | 16 | 9.0 | 13.0 | 0.00 | 0.00 | 0.00 | 62 | 1010.3 |
| 20260505114041 | 61 | 25 | 6.0 | 12.0 | 0.00 | 0.00 | 0.00 | 63 | 1010.3 |
| 20260505113539 | 61 | 24 | 5.0 | 12.0 | 0.00 | 0.00 | 0.00 | 63 | 1010.4 |
| 20260505113059 | 61 | 247 | 5.0 | 11.0 | 0.00 | 0.00 | 0.00 | 65 | 1010.4 |
| 20260505112607 | 60 | 14 | 6.0 | 11.0 | 0.00 | 0.00 | 0.00 | 64 | 1010.5 |
| 20260505112026 | 61 | 236 | 3.0 | 11.0 | 0.00 | 0.00 | 0.00 | 63 | 1010.4 |
| 20260505111547 | 62 | 347 | 3.0 | 11.0 | 0.00 | 0.00 | 0.00 | 66 | 1010.6 |
| 20260505111028 | 60 | 63 | 4.0 | 15.0 | 0.00 | 0.00 | 0.00 | 65 | 1010.5 |
| 20260505110545 | 61 | 27 | 6.0 | 15.0 | 0.00 | 0.00 | 0.00 | 62 | 1010.6 |
| 20260505102049 | 61 | 19 | 7.0 | 16.0 | 0.00 | 0.00 | 0.00 | 66 | 1010.7 |
| 20260505101600 | 61 | 5 | 5.0 | 16.0 | 0.00 | 0.00 | 0.00 | 65 | 1010.7 |
| 20260505101052 | 61 | 5 | 5.0 | 13.0 | 0.00 | 0.00 | 0.00 | 65 | 1010.8 |
| 20260505100543 | 60 | 34 | 3.0 | 13.0 | 0.00 | 0.00 | 0.00 | 68 | 1010.9 |
| 20260505100045 | 61 | 84 | 7.0 | 13.0 | 0.00 | 0.00 | 0.00 | 66 | 1010.9 |
| 20260505095602 | 60 | 32 | 5.0 | 9.0 | 0.00 | 0.00 | 0.00 | 67 | 1010.9 |
| 20260505095042 | 61 | 31 | 5.0 | 9.0 | 0.00 | 0.00 | 0.00 | 66 | 1011.0 |
| 20260505094532 | 59 | 58 | 4.0 | 13.0 | 0.00 | 0.00 | 0.00 | 71 | 1011.1 |
| 20260505094055 | 57 | 24 | 5.0 | 13.0 | 0.00 | 0.00 | 0.00 | 74 | 1011.0 |
| 20260505093613 | 56 | 81 | 4.0 | 7.0 | 0.00 | 0.00 | 0.00 | 77 | 1011.0 |
| 20260505093056 | 56 | 86 | 2.0 | 7.0 | 0.00 | 0.00 | 0.00 | 75 | 1011.0 |
| 20260505092604 | 56 | 17 | 3.0 | 8.0 | 0.00 | 0.00 | 0.00 | 75 | 1011.1 |
| 20260505092040 | 56 | 328 | 4.0 | 9.0 | 0.00 | 0.00 | 0.00 | 73 | 1011.1 |
| 20260505091535 | 56 | 355 | 4.0 | 10.0 | 0.00 | 0.00 | 0.00 | 78 | 1011.1 |
| 20260505091100 | 55 | 85 | 3.0 | 12.0 | 0.00 | 0.00 | 0.00 | 77 | 1011.1 |
| 20260505090601 | 54 | 16 | 6.0 | 12.0 | 0.00 | 0.00 | 0.00 | 79 | 1011.1 |
| 20260505090051 | 54 | 5 | 4.0 | 14.0 | 0.00 | 0.00 | 0.00 | 83 | 1011.1 |
| 20260505085540 | 52 | 355 | 5.0 | 14.0 | 0.00 | 0.00 | 0.00 | 82 | 1011.1 |
| 20260505085039 | 52 | 30 | 6.0 | 12.0 | 0.00 | 0.00 | 0.00 | 84 | 1011.1 |
| 20260505084538 | 52 | 59 | 4.0 | 10.0 | 0.00 | 0.00 | 0.00 | 85 | 1011.0 |
| 20260505084034 | 52 | 36 | 4.0 | 9.0 | 0.00 | 0.00 | 0.00 | 86 | 1011.0 |
| 20260505083553 | 52 | 29 | 3.0 | 7.0 | 0.00 | 0.00 | 0.00 | 87 | 1011.0 |
| 20260505083029 | 52 | 60 | 3.0 | 7.0 | 0.00 | 0.00 | 0.00 | 87 | 1011.0 |
| 20260505082544 | 52 | 50 | 2.0 | 7.0 | 0.00 | 0.00 | 0.00 | 88 | 1011.0 |
| 20260505082055 | 52 | 24 | 2.0 | 6.0 | 0.00 | 0.00 | 0.00 | 88 | 1011.0 |
| 20260505081533 | 52 | 41 | 1.0 | 4.0 | 0.00 | 0.00 | 0.00 | 88 | 1011.1 |
| 20260505081036 | 51 | 95 | 2.0 | 6.0 | 0.00 | 0.00 | 0.00 | 88 | 1011.1 |
| 20260505080549 | 51 | 35 | 2.0 | 8.0 | 0.00 | 0.00 | 0.00 | 88 | 1011.0 |
| 20260505080049 | 51 | 28 | 3.0 | 8.0 | 0.00 | 0.00 | 0.00 | 88 | 1010.9 |
| 20260505075551 | 51 | 31 | 3.0 | 7.0 | 0.00 | 0.00 | 0.00 | 89 | 1010.9 |
| 20260505075100 | 51 | 38 | 3.0 | 7.0 | 0.00 | 0.00 | 0.00 | 88 | 1010.9 |
| 20260505074541 | 51 | 286 | 4.0 | 7.0 | 0.00 | 0.00 | 0.00 | 89 | 1011.0 |
| 20260505074045 | 51 | 12 | 1.0 | 5.0 | 0.00 | 0.00 | 0.00 | 89 | 1011.1 |
| 20260505073541 | 51 | 355 | 3.0 | 7.0 | 0.00 | 0.00 | 0.00 | 89 | 1011.1 |
| 20260505073042 | 51 | 66 | 2.0 | 7.0 | 0.00 | 0.00 | 0.00 | 89 | 1011.2 |
| 20260505072557 | 51 | 84 | 2.0 | 5.0 | 0.00 | 0.00 | 0.00 | 89 | 1011.1 |
| 20260505072041 | 51 | 355 | 2.0 | 6.0 | 0.00 | 0.00 | 0.00 | 89 | 1011.1 |
| 20260505071547 | 51 | 26 | 1.0 | 5.0 | 0.00 | 0.00 | 0.00 | 89 | 1011.1 |
| 20260505071051 | 51 | 46 | 2.0 | 5.0 | 0.00 | 0.00 | 0.00 | 89 | 1011.2 |
| 20260505070537 | 51 | 71 | 2.0 | 6.0 | 0.00 | 0.00 | 0.00 | 89 | 1011.2 |
| 20260505070100 | 51 | 27 | 3.0 | 6.0 | 0.00 | 0.00 | 0.00 | 89 | 1011.3 |
| 20260505065600 | 51 | 355 | 3.0 | 6.0 | 0.00 | 0.00 | 0.00 | 88 | 1011.3 |
| 20260505065050 | 51 | 49 | 2.0 | 7.0 | 0.00 | 0.00 | 0.00 | 88 | 1011.4 |
| 20260505064546 | 51 | 32 | 3.0 | 6.0 | 0.00 | 0.00 | 0.00 | 88 | 1011.4 |
| 20260505064045 | 51 | 30 | 3.0 | 8.0 | 0.00 | 0.00 | 0.00 | 88 | 1011.5 |
| 20260505063542 | 51 | 5 | 4.0 | 9.0 | 0.00 | 0.00 | 0.00 | 88 | 1011.4 |
| 20260505063105 | 51 | 61 | 5.0 | 9.0 | 0.00 | 0.00 | 0.00 | 88 | 1011.4 |
| 20260505062554 | 51 | 9 | 4.0 | 9.0 | 0.00 | 0.00 | 0.00 | 88 | 1011.5 |
| 20260505062052 | 51 | 96 | 3.0 | 7.0 | 0.00 | 0.00 | 0.00 | 88 | 1011.6 |
| 20260505061543 | 51 | 355 | 4.0 | 10.0 | 0.00 | 0.00 | 0.00 | 87 | 1011.5 |
| 20260505061031 | 50 | 355 | 4.0 | 11.0 | 0.00 | 0.00 | 0.00 | 88 | 1011.4 |
| 20260505060536 | 50 | 342 | 4.0 | 11.0 | 0.00 | 0.00 | 0.00 | 88 | 1011.5 |
| 20260505060040 | 50 | 41 | 3.0 | 8.0 | 0.00 | 0.00 | 0.00 | 88 | 1011.5 |
| 20260505055542 | 50 | 5 | 3.0 | 7.0 | 0.00 | 0.00 | 0.00 | 88 | 1011.6 |
| 20260505055048 | 50 | 336 | 4.0 | 9.0 | 0.00 | 0.00 | 0.00 | 88 | 1011.7 |
| 20260505054543 | 50 | 41 | 4.0 | 10.0 | 0.00 | 0.00 | 0.00 | 88 | 1011.6 |
| 20260505054031 | 50 | 339 | 4.0 | 10.0 | 0.00 | 0.00 | 0.00 | 88 | 1011.6 |
| 20260505053546 | 50 | 355 | 2.0 | 9.0 | 0.00 | 0.00 | 0.00 | 88 | 1011.5 |
| 20260505053045 | 50 | 360 | 4.0 | 8.0 | 0.00 | 0.00 | 0.00 | 88 | 1011.4 |
| 20260505052535 | 50 | 346 | 3.0 | 8.0 | 0.00 | 0.00 | 0.00 | 88 | 1011.4 |
| 20260505052048 | 50 | 39 | 4.0 | 8.0 | 0.00 | 0.00 | 0.00 | 88 | 1011.3 |
| 20260505051551 | 50 | 26 | 3.0 | 8.0 | 0.00 | 0.00 | 0.00 | 88 | 1011.2 |
| 20260505051102 | 50 | 36 | 3.0 | 8.0 | 0.00 | 0.00 | 0.00 | 88 | 1011.2 |
| 20260505050602 | 50 | 360 | 2.0 | 8.0 | 0.00 | 0.00 | 0.00 | 88 | 1011.1 |
| 20260505041532 | 50 | 51 | 3.0 | 8.0 | 0.00 | 0.00 | 0.00 | 88 | 1011.1 |
| 20260505041048 | 50 | 313 | 2.0 | 7.0 | 0.00 | 0.00 | 0.00 | 88 | 1011.2 |
| 20260505040539 | 50 | 17 | 4.0 | 7.0 | 0.00 | 0.00 | 0.00 | 88 | 1011.2 |
| 20260505040030 | 50 | 17 | 3.0 | 6.0 | 0.00 | 0.00 | 0.00 | 88 | 1011.2 |
| 20260505035550 | 50 | 27 | 3.0 | 9.0 | 0.00 | 0.00 | 0.00 | 88 | 1011.3 |
| 20260505035033 | 50 | 33 | 3.0 | 9.0 | 0.00 | 0.00 | 0.00 | 87 | 1011.3 |
| 20260505034532 | 50 | 17 | 4.0 | 9.0 | 0.00 | 0.00 | 0.00 | 87 | 1011.3 |
| 20260505034057 | 50 | 355 | 4.0 | 11.0 | 0.00 | 0.00 | 0.00 | 87 | 1011.3 |
| 20260505033535 | 50 | 40 | 3.0 | 11.0 | 0.00 | 0.00 | 0.00 | 87 | 1011.2 |
| 20260505033052 | 50 | 15 | 4.0 | 9.0 | 0.00 | 0.00 | 0.00 | 87 | 1011.3 |
| 20260505032608 | 50 | 31 | 4.0 | 9.0 | 0.00 | 0.00 | 0.00 | 87 | 1011.3 |
| 20260505032100 | 50 | 360 | 4.0 | 11.0 | 0.00 | 0.00 | 0.00 | 87 | 1011.3 |
| 20260505031548 | 50 | 28 | 5.0 | 11.0 | 0.00 | 0.00 | 0.00 | 87 | 1011.3 |
| 20260505031044 | 50 | 36 | 4.0 | 11.0 | 0.00 | 0.00 | 0.00 | 87 | 1011.4 |
| 20260505030535 | 50 | 347 | 5.0 | 11.0 | 0.00 | 0.00 | 0.00 | 87 | 1011.4 |
| 20260505030043 | 50 | 18 | 4.0 | 9.0 | 0.00 | 0.00 | 0.00 | 87 | 1011.4 |
| 20260505025546 | 50 | 334 | 3.0 | 9.0 | 0.00 | 0.00 | 0.00 | 87 | 1011.5 |
| 20260505025054 | 50 | 326 | 4.0 | 9.0 | 0.00 | 0.00 | 0.00 | 87 | 1011.3 |
| 20260505024549 | 50 | 27 | 4.0 | 9.0 | 0.00 | 0.00 | 0.00 | 87 | 1011.4 |
| 20260505024053 | 50 | 346 | 5.0 | 11.0 | 0.00 | 0.00 | 0.00 | 87 | 1011.4 |
| 20260505023559 | 50 | 5 | 6.0 | 11.0 | 0.00 | 0.00 | 0.00 | 87 | 1011.4 |
| 20260505023032 | 50 | 16 | 2.0 | 9.0 | 0.00 | 0.00 | 0.00 | 87 | 1011.6 |
| 20260505022537 | 50 | 18 | 4.0 | 9.0 | 0.00 | 0.00 | 0.00 | 87 | 1011.6 |
| 20260505022035 | 50 | 65 | 4.0 | 12.0 | 0.00 | 0.00 | 0.00 | 87 | 1011.6 |
| 20260505021544 | 50 | 345 | 4.0 | 12.0 | 0.00 | 0.00 | 0.00 | 87 | 1011.6 |
| 20260505021052 | 50 | 341 | 5.0 | 10.0 | 0.00 | 0.00 | 0.00 | 87 | 1011.6 |
| 20260505020607 | 50 | 349 | 4.0 | 10.0 | 0.00 | 0.00 | 0.00 | 87 | 1011.6 |
| 20260505020038 | 51 | 23 | 5.0 | 10.0 | 0.00 | 0.00 | 0.00 | 87 | 1011.6 |
| 20260505015542 | 51 | 340 | 4.0 | 10.0 | 0.00 | 0.00 | 0.00 | 87 | 1011.6 |
| 20260505015024 | 51 | 30 | 5.0 | 14.0 | 0.00 | 0.00 | 0.00 | 87 | 1011.6 |
| 20260505014622 | 51 | 355 | 4.0 | 14.0 | 0.00 | 0.00 | 0.00 | 87 | 1011.6 |
| 20260505014034 | 51 | 56 | 4.0 | 11.0 | 0.00 | 0.00 | 0.00 | 87 | 1011.8 |
| 20260505013532 | 51 | 302 | 3.0 | 9.0 | 0.00 | 0.00 | 0.00 | 87 | 1011.7 |
| 20260505013025 | 51 | 9 | 5.0 | 9.0 | 0.00 | 0.00 | 0.00 | 87 | 1011.8 |
| 20260505012543 | 51 | 355 | 5.0 | 10.0 | 0.00 | 0.00 | 0.00 | 87 | 1011.8 |
| 20260505012040 | 51 | 10 | 5.0 | 10.0 | 0.00 | 0.00 | 0.00 | 88 | 1011.8 |
| 20260505011534 | 51 | 12 | 5.0 | 10.0 | 0.00 | 0.00 | 0.00 | 88 | 1011.8 |
| 20260505011049 | 51 | 360 | 3.0 | 10.0 | 0.00 | 0.00 | 0.00 | 88 | 1011.8 |
| 20260505010536 | 51 | 19 | 5.0 | 9.0 | 0.00 | 0.00 | 0.00 | 87 | 1011.9 |
| 20260505010100 | 51 | 15 | 3.0 | 10.0 | 0.00 | 0.00 | 0.00 | 87 | 1011.9 |
| 20260505005549 | 52 | 24 | 4.0 | 10.0 | 0.00 | 0.00 | 0.00 | 87 | 1011.9 |
| 20260505005106 | 52 | 20 | 4.0 | 10.0 | 0.00 | 0.00 | 0.00 | 88 | 1012.0 |
| 20260505004530 | 52 | 5 | 4.0 | 9.0 | 0.00 | 0.00 | 0.00 | 88 | 1012.1 |
| 20260505004033 | 52 | 355 | 4.0 | 12.0 | 0.00 | 0.00 | 0.00 | 88 | 1012.0 |
| 20260505003603 | 52 | 29 | 5.0 | 12.0 | 0.00 | 0.00 | 0.00 | 88 | 1012.0 |
| 20260505003037 | 52 | 328 | 5.0 | 11.0 | 0.00 | 0.00 | 0.00 | 88 | 1012.0 |
| 20260505002600 | 52 | 336 | 4.0 | 10.0 | 0.00 | 0.00 | 0.00 | 87 | 1012.1 |
| 20260505002051 | 52 | 305 | 4.0 | 8.0 | 0.00 | 0.00 | 0.00 | 88 | 1012.1 |
| 20260505001528 | 52 | 5 | 3.0 | 7.0 | 0.00 | 0.00 | 0.00 | 88 | 1012.1 |
| 20260505001054 | 53 | 5 | 4.0 | 7.0 | 0.00 | 0.00 | 0.00 | 88 | 1012.2 |
| 20260505000532 | 52 | 13 | 4.0 | 9.0 | 0.00 | 0.00 | 0.00 | 87 | 1012.2 |
| 20260505000032 | 53 | 344 | 5.0 | 9.0 | 0.00 | 0.00 | 0.00 | 87 | 1012.2 |
| 20260504235534 | 53 | 32 | 3.0 | 9.0 | 0.00 | 0.00 | 0.00 | 87 | 1012.3 |